MOLNIYA 3-8

Last updated on Jan. 25, 2021, 10:42 a.m. UTC

1 10455U 77105A   21024.26131686  .00001426  00000-0  30589-2 0  9997
2 10455  62.5346  77.6067 7342529 278.6433  11.7542  2.00614953316922
UTC
Height (km)
Latitude
Longitude
Inclination
Orbital Period
UTC large
Height (km)
Speed (km/s)
/
Latitude / Longitude
Inclination (degrees)
Orbital Period (minutes)
Azimuth
Elevation
Range (km)
Doppler Factor
iOS Compass Heading
iOS Angle

Next 30 passes for location: Hong Kong

Rise time Rise Azimuth (degrees) Set time Set Azimuth (degrees) Duration Max altitude (degrees)

No matching passes for this satellites